Keesler Air Force Base
KBIX : now visible

Airfield :











YOU CAN JOIN US ON...

 
LOGIN :

Register | Disclaimer

   EN    FR    IT 

 









Legend :    VFR   Marginal VFR   IFR   Intensive IFR   Very Intensive IFR
Visi :
Ceiling :
>= 8 km
>= 3000ft
5 to 8 km
1000 to 3000 ft
1500m to 5 km
500 to 1000 ft
800 to 1500m
200 to 500 ft
< 800m
< 200 ft
Symbols :   Thunderstorms  Fog  Heavy snow  Heavy precipitations  Wind > 20 kt






- Airport Elevation : 33 ft


KBIX - Keesler Air Force Base

CURRENT METAR :
  • 260456Z AUTO 00000KT 10SM CLR 23/21 A2995 RMK AO2 SLP145 T02250209

EXPIRED METARs :
  • 260356Z AUTO 00000KT 10SM CLR 23/21 A2995 RMK AO2 SLP145 T02250208
  • 260256Z AUTO 00000KT 10SM CLR 23/21 A2994 RMK AO2 SLP141 T02330214 52015

TAF TAF KBIX
Valid from the 26 at 02:00 until the 27 at 08:00 UTC


260200Z 2602/2708 VRB06KT 9999 FEW040 QNH2993INS
BECMG 2614/2615 06012G18KT 9999 SCT030 QNH3002INS
BECMG 2620/2621 VRB06KT 9999 FEW200 QNH2990INS TX27/2619Z TN16/2611Z LAST NO AMDS AFT 2604 NEXT 2610
KZHU FIR / North America



MET'MAP, your aeronautical weather chart ! - Copyright ORBIFLY December 2007 - Disclaimer

ORBIFLY MET'MAP TEAM :

Programming & Development : Alexandra Zaïnal
Concept & original design : Baudouin d'Aumeries
Assistance for programming : Marc-Olivier Méhu
Technical & hardware support : Manuel Goepfert

Contact : metmap@orbifly.com




SOURCES & CREDITS :

   NOAA       Earth
Advisory